[[{"header":{"parameterUnit":"m.s-1","parameterCategory":2,"la1":30.2991,"la2":30.254,"lo1":-89.0895,"lo2":-89.0444,"dx":0.0017,"dy":0.0017,"nx":28,"ny":28,"refTime":"2023-01-30T15:00:00:Z","depth":"0","parameterNumber":2,"parameterNumberName":"U-component_of_CURRENTS"},"data":[0,0,0,0,0,0,0,0,0,0,0,0,0,0,0,0,0,0,0,0,0,0,0,0,0,0,0,0,0,0,0,0,0,0,0,0,0,0,0,0,0,0,0,0,0,0,0,0,0,0,0,0,0,0,0,0,0,0,0.3049,0.3045,0,0.2723,0.2719,0.2716,0.244,0.2437,0.2433,0.243,0.2335,0.2335,0.2336,0,0,0,0,0,0,0,0,0,0,0,0,0,0.3475,0.3469,0.3049,0.3044,0.304,0.2723,0.2719,0.2715,0.2441,0.2436,0.2432,0.2428,0.2334,0.2335,0.2336,0,0,0,0,0,0,0,0,0,0,0,0,0,0.3238,0.3467,0.305,0.2862,0.2841,0.2724,0.2719,0.2714,0.2441,0.2436,0.2431,0.2426,0.2334,0.2335,0.2336,0.2445,0,0,0.2339,0.234,0,0,0,0,0,0,0,0,0.3252,0.3223,0.2894,0.2874,0.2851,0.2613,0.2833,0.2634,0.2443,0.2598,0.243,0.2424,0.245,0.2441,0.2394,0.2441,0.2437,0.2339,0.234,0.234,0.2341,0,0,0,0,0,0,0,0.3268,0.3236,0.2924,0.2889,0.2863,0.2807,0.2768,0.2794,0.2565,0.2584,0.2562,0.252,0.244,0.2394,0.2391,0.2435,0.2339,0.234,0.2341,0.2341,0.2691,0.27,0,0,0,0,0,0,0.3302,0.3251,0.2934,0.2914,0.3038,0.2803,0.2759,0.2698,0.2558,0.2529,0.2525,0.2509,0.2395,0.239,0.2387,0.2596,0.234,0.2341,0.2342,0.2683,0.2693,0.2703,0,0,0,0,0,0,0.3313,0.3277,0.2947,0.3073,0.3026,0.28,0.2734,0.2694,0.2642,0.251,0.2485,0.2513,0.239,0.2385,0.2445,0.2587,0.2342,0.2343,0.2672,0.2686,0.2698,0.296,0,0,0,0,0,0,0.3326,0.3282,0.3301,0.3075,0.302,0.2945,0.2737,0.2691,0.2622,0.2598,0.2494,0.2477,0.2386,0.2445,0.2446,0.2584,0.2343,0.2661,0.2678,0.2694,0.294,0.298,0.3015,0,0,0,0,0,0.3342,0.3382,0.3304,0.3267,0.3035,0.295,0.2922,0.2745,0.2628,0.2668,0.2579,0.248,0.2551,0.2452,0.2452,0.2593,0.2653,0.2674,0.2693,0.2924,0.2973,0.3014,0,0,0,0,0,0,0.3553,0.3351,0.326,0.3228,0.3129,0.2903,0.2919,0.2784,0.2736,0.2716,0.2567,0.2553,0.2674,0.262,0.2514,0.2755,0.26,0.262,0.2776,0.2821,0.2858,0.2907,0.2344,0,0,0,0,0,0.3618,0.36,0.3402,0.3386,0.3352,0.3146,0.3098,0.2977,0.2872,0.2836,0.2743,0.2711,0.2764,0.2771,0.2797,0.2914,0.2894,0.3022,0.3059,0.309,0.3141,0.3222,0.3269,0.2767,0.2767,0.2766,0,0,0.3677,0.3579,0.3556,0.3436,0.3335,0.3321,0.3107,0.3061,0.3064,0.2855,0.2872,0.2846,0.2832,0.2957,0.301,0.2916,0.3235,0.3115,0.314,0.3175,0.3248,0.3295,0.3338,0.278,0.2778,0.2776,0,0,0.3794,0.3724,0.3745,0.3703,0.3595,0.3492,0.3495,0.3308,0.3263,0.3286,0.3165,0.3235,0.3231,0.3265,0.3285,0.3569,0.344,0.3571,0.3774,0.3854,0.3894,0.3929,0.399,0.4028,0.3571,0.3572,0.3573,0,0.3865,0.3841,0.3752,0.3777,0.374,0.3583,0.3593,0.3578,0.3434,0.3413,0.3349,0.3384,0.3408,0.3554,0.3678,0.3657,0.3641,0.3583,0.3896,0.3931,0.3962,0.4015,0.4053,0.3587,0.3585,0.3584,0.3582,0,0.3971,0.398,0.4009,0.3974,0.3971,0.3966,0.3902,0.3908,0.3825,0.3743,0.3838,0.3853,0.3849,0.3922,0.3902,0.4144,0.4044,0.3936,0.3761,0.4027,0.4068,0.4103,0.3609,0.3603,0.3599,0.3595,0,0,0.3969,0.4052,0.4049,0.4056,0.4054,0.402,0.4135,0.4112,0.4108,0.4114,0.4119,0.4327,0.4252,0.4286,0.4263,0.439,0.4666,0.4284,0.4281,0.4309,0.4815,0.4751,0.478,0.4562,0.4569,0.4575,0.4759,0,0.4028,0.4117,0.4147,0.4215,0.423,0.4204,0.429,0.4292,0.4275,0.4278,0.4357,0.4387,0.4413,0.4408,0.457,0.4583,0.4767,0.4626,0.4586,0.4588,0.4467,0.4824,0.4783,0.4943,0.4793,0.4798,0.4802,0,0.4055,0.4112,0.4191,0.4264,0.4264,0.4299,0.4316,0.4374,0.4432,0.4427,0.4493,0.4481,0.4691,0.4667,0.4912,0.4784,0.4902,0.4945,0.4947,0.4823,0.4591,0.4656,0.5011,0.49,0.4855,0.4851,0.4847,0,0.3995,0.411,0.4161,0.4186,0.4276,0.4294,0.4319,0.4372,0.439,0.4485,0.4472,0.4651,0.4687,0.4878,0.5007,0.4959,0.5231,0.5133,0.5214,0.5205,0.5143,0.5117,0.5361,0.5439,0.5438,0.5438,0.5437,0,0.399,0.4012,0.4123,0.4138,0.4164,0.4242,0.4253,0.4306,0.4375,0.4388,0.4511,0.455,0.4748,0.4877,0.5046,0.5224,0.5262,0.5364,0.5299,0.5237,0.5218,0.5084,0.5016,0.5445,0.5443,0.5442,0.5441,0,0.3878,0.3973,0.4007,0.4109,0.4125,0.4116,0.4168,0.4177,0.4262,0.4288,0.4322,0.448,0.466,0.4845,0.5119,0.5221,0.5318,0.5492,0.5402,0.5329,0.5285,0.5232,0.5153,0.5071,0.5639,0.564,0.564,0,0.3828,0.3846,0.3926,0.3935,0.3961,0.3976,0.3981,0.4084,0.4098,0.4226,0.4228,0.442,0.4539,0.4876,0.5147,0.544,0.5327,0.5552,0.5538,0.5392,0.5286,0.4972,0.4886,0.5568,0.5567,0.5567,0.5567,0,0.3713,0.373,0.3764,0.3787,0.3787,0.3796,0.3818,0.3816,0.3935,0.3985,0.4068,0.4183,0.4543,0.48,0.5175,0.5384,0.5321,0.5553,0.5453,0.5361,0.4989,0.4835,0.5295,0.5564,0.5564,0.5564,0.5564,0.5565,0.3586,0.3577,0.3624,0.3624,0.3626,0.3601,0.3561,0.3615,0.3634,0.37,0.3885,0.4023,0.4508,0.5038,0.5175,0.544,0.5317,0.5455,0.544,0.5156,0.4997,0.5455,0.5588,0.5589,0.5589,0.5589,0.559,0,0.345,0.3471,0.347,0.3463,0.3403,0.3459,0.3442,0.3399,0.3379,0.353,0.3631,0.406,0.4447,0.4853,0.5354,0.5345,0.5154,0.527,0.489,0.4847,0.5355,0.5275,0.5282,0.5282,0.5282,0.5282,0.5282,0.5282,0.3386,0.3357,0.3372,0.3254,0.3234,0.3125,0.3093,0.306,0.3129,0.3232,0.341,0.3618,0.422,0.4903,0.5207,0.5188,0.4894,0.4699,0.4623,0.5066,0.5081,0.5094,0.5006,0.4957,0.4957,0.3971,0.3964,0.3959]},{"header":{"parameterUnit":"m.s-1","parameterCategory":2,"la1":30.2991,"la2":30.254,"lo1":-89.0895,"lo2":-89.0444,"dx":0.0017,"dy":0.0017,"nx":28,"ny":28,"refTime":"2023-01-30T15:00:00:Z","depth":"0","parameterNumber":3,"parameterNumberName":"V-component_of_CURRENTS"},"data":[0,0,0,0,0,0,0,0,0,0,0,0,0,0,0,0,0,0,0,0,0,0,0,0,0,0,0,0,0,0,0,0,0,0,0,0,0,0,0,0,0,0,0,0,0,0,0,0,0,0,0,0,0,0,0,0,0,0,0.0071,0.007,0,-0.004,-0.0042,-0.0043,-0.0145,-0.0146,-0.0147,-0.0148,-0.0237,-0.0238,-0.024,0,0,0,0,0,0,0,0,0,0,0,0,0,0.0183,0.0181,0.0071,0.007,0.0069,-0.004,-0.0042,-0.0044,-0.0144,-0.0146,-0.0147,-0.0148,-0.0236,-0.0238,-0.024,0,0,0,0,0,0,0,0,0,0,0,0,0,0.0107,0.0181,0.0071,0.0007,0.0001,-0.004,-0.0042,-0.0044,-0.0144,-0.0146,-0.0147,-0.0149,-0.0236,-0.0238,-0.024,-0.0224,0,0,-0.0247,-0.0248,0,0,0,0,0,0,0,0,0.0111,0.0103,0.0018,0.0012,0.0004,-0.0078,-0.0035,-0.0102,-0.0144,-0.0092,-0.0148,-0.0149,-0.0179,-0.0186,-0.0207,-0.0228,-0.0232,-0.0247,-0.0248,-0.0249,-0.025,0,0,0,0,0,0,0,0.0117,0.0107,0.0024,0.0017,0.0008,-0.002,-0.0033,-0.0049,-0.0127,-0.0097,-0.0104,-0.0111,-0.0183,-0.0205,-0.021,-0.0233,-0.0247,-0.0249,-0.025,-0.0251,-0.0141,-0.0137,0,0,0,0,0,0,0.0138,0.0112,0.0028,0.0021,0.0058,-0.0021,-0.0035,-0.0052,-0.0128,-0.014,-0.011,-0.0116,-0.0201,-0.0207,-0.0214,-0.0132,-0.0249,-0.0251,-0.0252,-0.0146,-0.014,-0.0136,0,0,0,0,0,0,0.0141,0.0131,0.0033,0.0067,0.0052,-0.0021,-0.0039,-0.0053,-0.0072,-0.0138,-0.0151,-0.0113,-0.0202,-0.021,-0.0205,-0.0139,-0.0252,-0.0254,-0.0151,-0.0144,-0.0138,-0.0011,0,0,0,0,0,0,0.0144,0.0133,0.0125,0.0068,0.0051,0.0023,-0.0038,-0.0054,-0.0074,-0.0082,-0.0144,-0.0155,-0.0204,-0.0202,-0.0207,-0.0144,-0.0256,-0.0156,-0.0148,-0.014,-0.0021,-0.0001,0.0015,0,0,0,0,0,0.0148,0.0139,0.0125,0.0115,0.0044,0.0025,0.0014,-0.0045,-0.0072,-0.0069,-0.0102,-0.0153,-0.0154,-0.0201,-0.0209,-0.0144,-0.016,-0.015,-0.0141,-0.0029,-0.0005,0.0015,0,0,0,0,0,0,0.0171,0.0126,0.011,0.0084,0.0068,0.0009,-0.0004,-0.0028,-0.0055,-0.0065,-0.0123,-0.0134,-0.0099,-0.0128,-0.0178,-0.008,-0.0155,-0.0146,-0.0066,-0.0045,-0.0027,0.0042,-0.0258,0,0,0,0,0,0.018,0.0166,0.013,0.0113,0.0107,0.0061,0.0045,0.0015,-0.0015,-0.0031,-0.0067,-0.008,-0.0063,-0.0064,-0.0071,-0.0031,-0.0036,0.0019,0.0037,0.0052,0.0109,0.0195,0.0226,-0.0105,-0.0105,-0.0105,0,0,0.0181,0.0159,0.0147,0.012,0.0094,0.0102,0.0046,0.0031,0.0052,-0.0031,-0.002,-0.0031,-0.0038,0.0007,0.0024,-0.0013,0.0127,0.0064,0.0076,0.0127,0.0208,0.024,0.0269,-0.0098,-0.0099,-0.01,0,0,0.0194,0.0164,0.0166,0.0163,0.0145,0.0128,0.0137,0.01,0.0096,0.011,0.0082,0.0137,0.0102,0.0152,0.0166,0.0294,0.0217,0.0273,0.0417,0.0499,0.0527,0.0552,0.0506,0.0526,0.0285,0.0285,0.0286,0,0.02,0.0202,0.0167,0.018,0.0191,0.0153,0.0183,0.0178,0.0153,0.0197,0.013,0.0219,0.0197,0.0337,0.0376,0.034,0.0316,0.0321,0.0522,0.0547,0.057,0.0519,0.0539,0.0293,0.0292,0.0291,0.029,0,0.0227,0.0233,0.0238,0.025,0.0259,0.0276,0.028,0.0306,0.0299,0.0315,0.0427,0.0424,0.0493,0.0501,0.0465,0.0646,0.0545,0.0525,0.046,0.0611,0.0546,0.0565,0.0303,0.03,0.0298,0.0297,0,0,0.0254,0.0256,0.0265,0.0299,0.0306,0.0327,0.0386,0.0461,0.0543,0.0548,0.0679,0.0743,0.076,0.0787,0.0779,0.0862,0.0965,0.0765,0.0766,0.0708,0.1046,0.0951,0.096,0.0961,0.0967,0.0972,0.0903,0,0.0301,0.0345,0.0338,0.0413,0.045,0.0462,0.0531,0.0598,0.0644,0.0752,0.0832,0.0922,0.0861,0.0906,0.0993,0.0984,0.1034,0.098,0.0923,0.0921,0.0811,0.099,0.0979,0.0919,0.0921,0.0924,0.0926,0,0.0361,0.0386,0.0451,0.0533,0.0553,0.0593,0.0738,0.0792,0.0936,0.0978,0.1107,0.113,0.128,0.1192,0.1284,0.1235,0.117,0.1145,0.1141,0.1044,0.0868,0.079,0.0953,0.0674,0.0955,0.0952,0.095,0,0.0438,0.049,0.0552,0.0571,0.0638,0.0701,0.0752,0.0877,0.0965,0.1135,0.1217,0.1362,0.1425,0.1445,0.1374,0.1329,0.143,0.1348,0.1198,0.1181,0.1169,0.1145,0.1068,0.1438,0.1438,0.1438,0.1439,0,0.0517,0.0579,0.0591,0.063,0.0743,0.0769,0.0917,0.0991,0.1134,0.1275,0.134,0.1474,0.1498,0.1536,0.1456,0.1388,0.1484,0.128,0.1216,0.12,0.118,0.093,0.0794,0.1436,0.1436,0.1437,0.1437,0,0.06,0.0603,0.0681,0.0745,0.0775,0.0856,0.0976,0.1091,0.1199,0.1387,0.1445,0.1572,0.1621,0.1593,0.1599,0.1469,0.1264,0.136,0.1275,0.1207,0.0792,0.0665,0.0592,0.0387,0.1193,0.1191,0.119,0,0.0645,0.0682,0.0748,0.079,0.0817,0.0925,0.1008,0.1121,0.1236,0.1449,0.1551,0.1652,0.1762,0.1702,0.1552,0.1412,0.1188,0.1219,0.1185,0.0826,0.0638,0.055,0.0374,0.1159,0.1157,0.1156,0.1155,0,0.0722,0.073,0.0778,0.0854,0.0931,0.1042,0.116,0.1261,0.1413,0.1566,0.1749,0.1857,0.1814,0.1738,0.1523,0.1385,0.0993,0.1179,0.09,0.0717,0.054,0.0289,0.103,0.1143,0.1144,0.1145,0.1145,0.1146,0.0762,0.0802,0.0838,0.0924,0.1013,0.1146,0.126,0.1399,0.159,0.1853,0.1901,0.2128,0.1981,0.1737,0.1396,0.0847,0.0863,0.0675,0.057,0.0526,0.0313,0.0965,0.0956,0.0956,0.0956,0.0956,0.0956,0,0.0792,0.083,0.0905,0.1006,0.1116,0.1163,0.1355,0.1493,0.1716,0.2002,0.2187,0.2392,0.1982,0.1579,0.0907,0.038,0.0149,0.0082,-0.0029,-0.0171,0.0504,0.0482,0.0263,0.0263,0.0264,0.0264,0.0264,0.0264,0.0805,0.0863,0.0904,0.1068,0.1156,0.1334,0.1455,0.1668,0.1909,0.2334,0.2634,0.2853,0.2799,0.1323,0.0195,-0.0158,-0.0608,-0.0637,-0.0913,-0.0446,-0.0399,-0.0355,-0.0407,-0.0809,-0.081,-0.1563,-0.157,-0.1575]}],[{"header":{"parameterUnit":"m.s-1","parameterCategory":2,"la1":30.2991,"la2":30.254,"lo1":-89.0895,"lo2":-89.0444,"dx":0.0017,"dy":0.0017,"nx":28,"ny":28,"refTime":"2023-01-30T15:00:00:Z","depth":"2","parameterNumber":2,"parameterNumberName":"U-component_of_CURRENTS"},"data":[0,0,0,0,0,0,0,0,0,0,0,0,0,0,0,0,0,0,0,0,0,0,0,0,0,0,0,0,0,0,0,0,0,0,0,0,0,0,0,0,0,0,0,0,0,0,0,0,0,0,0,0,0,0,0,0,0,0,0.1591,0.1592,0,0.1694,0.1694,0.1695,0.171,0.171,0.1709,0.1709,0.1736,0.1738,0.1739,0,0,0,0,0,0,0,0,0,0,0,0,0,0.1356,0.136,0.1591,0.1593,0.1594,0.1694,0.1694,0.1695,0.171,0.171,0.1709,0.1709,0.1736,0.1737,0.1739,0,0,0,0,0,0,0,0,0,0,0,0,0,0.1453,0.1361,0.159,0.1618,0.1622,0.1693,0.1694,0.1696,0.171,0.171,0.1709,0.1708,0.1736,0.1737,0.1739,0.1761,0,0,0.1744,0.1745,0,0,0,0,0,0,0,0,0.1447,0.146,0.1612,0.1616,0.1621,0.1694,0.1622,0.1716,0.171,0.1671,0.1709,0.1708,0.1719,0.1722,0.1736,0.1763,0.1764,0.1744,0.1745,0.1746,0.1746,0,0,0,0,0,0,0,0.144,0.1456,0.1626,0.1614,0.162,0.1608,0.1621,0.1639,0.1691,0.1674,0.1677,0.1698,0.172,0.1734,0.1736,0.1764,0.1744,0.1746,0.1747,0.1747,0.189,0.1893,0,0,0,0,0,0,0.1444,0.145,0.1622,0.1629,0.1537,0.1613,0.1628,0.1666,0.1693,0.1699,0.1698,0.1698,0.1732,0.1735,0.1737,0.1824,0.1746,0.1747,0.1748,0.1887,0.1891,0.1894,0,0,0,0,0,0,0.1439,0.1459,0.1618,0.1545,0.1565,0.1619,0.1662,0.1669,0.1699,0.1713,0.1716,0.1724,0.1731,0.1735,0.1781,0.1823,0.1748,0.175,0.1884,0.1888,0.1892,0.1959,0,0,0,0,0,0,0.1432,0.1457,0.1481,0.1546,0.157,0.167,0.1663,0.1671,0.1715,0.1716,0.1736,0.1737,0.1731,0.1778,0.1782,0.1823,0.1751,0.1881,0.1886,0.1891,0.1953,0.1965,0.1975,0,0,0,0,0,0.1423,0.1457,0.1482,0.1502,0.1604,0.1672,0.1682,0.1713,0.1717,0.1736,0.1759,0.1737,0.1814,0.1782,0.1786,0.1828,0.1878,0.1884,0.1891,0.1948,0.1963,0.1975,0,0,0,0,0,0,0.1365,0.1465,0.1492,0.1555,0.1616,0.1677,0.17,0.1727,0.1762,0.1764,0.1768,0.1772,0.1827,0.1826,0.179,0.1889,0.1845,0.1852,0.1888,0.1901,0.1912,0.1908,0.1752,0,0,0,0,0,0.1368,0.1417,0.1508,0.1555,0.1591,0.165,0.1681,0.1711,0.1755,0.177,0.1791,0.182,0.1856,0.1876,0.1899,0.1951,0.1973,0.1986,0.1996,0.2005,0.2009,0.2099,0.2118,0.1914,0.1914,0.1914,0,0,0.1355,0.1418,0.1444,0.1545,0.1592,0.1653,0.1666,0.1726,0.1772,0.1768,0.1828,0.1854,0.1879,0.1939,0.1964,0.1943,0.2078,0.2013,0.2021,0.2019,0.2108,0.2128,0.2145,0.1919,0.1918,0.1917,0,0,0.1358,0.1418,0.1465,0.1524,0.1614,0.1656,0.1681,0.1763,0.1794,0.1862,0.1877,0.1935,0.1981,0.2018,0.204,0.2128,0.213,0.214,0.2193,0.2282,0.2299,0.2314,0.2372,0.2392,0.2148,0.2149,0.2149,0,0.134,0.1423,0.1484,0.1549,0.1601,0.1663,0.1725,0.177,0.1854,0.1895,0.1887,0.2009,0.2021,0.2115,0.2145,0.2151,0.2194,0.2136,0.2295,0.2311,0.2325,0.238,0.2401,0.2153,0.2152,0.2152,0.2151,0,0.139,0.1455,0.1487,0.1593,0.1649,0.1712,0.1796,0.1851,0.1898,0.1952,0.2056,0.2096,0.2171,0.2192,0.2191,0.2312,0.2306,0.2294,0.2256,0.235,0.2402,0.2423,0.2158,0.2157,0.2156,0.2155,0,0,0.1367,0.1497,0.1511,0.1566,0.1683,0.1737,0.1819,0.1924,0.1992,0.2067,0.2168,0.2239,0.2276,0.2305,0.2331,0.2403,0.2536,0.2396,0.2399,0.2442,0.2727,0.2613,0.2624,0.2561,0.2565,0.2568,0.2722,0,0.1395,0.1505,0.1567,0.1665,0.1736,0.1814,0.1888,0.1984,0.206,0.2167,0.2242,0.234,0.2316,0.2374,0.2444,0.2521,0.2594,0.2494,0.2639,0.2642,0.2522,0.2646,0.2441,0.2552,0.2742,0.2746,0.2748,0,0.1441,0.1511,0.161,0.1727,0.1766,0.1826,0.1964,0.2044,0.2191,0.2255,0.2365,0.2429,0.256,0.2523,0.2697,0.264,0.2689,0.2732,0.2739,0.2621,0.2568,0.2491,0.2582,0.2782,0.278,0.2777,0.2775,0,0.1417,0.1543,0.1618,0.1663,0.1803,0.1858,0.1936,0.2075,0.2164,0.233,0.2417,0.2558,0.2658,0.275,0.2838,0.2789,0.3022,0.2963,0.2904,0.2895,0.274,0.271,0.3087,0.3087,0.3087,0.3086,0.3086,0,0.1438,0.15,0.1612,0.166,0.1754,0.1857,0.197,0.2068,0.2229,0.2355,0.2467,0.2598,0.2725,0.2865,0.2908,0.2982,0.3086,0.2937,0.2942,0.2756,0.2728,0.2931,0.291,0.3092,0.3091,0.3089,0.3088,0,0.1412,0.1486,0.1576,0.1707,0.175,0.1821,0.198,0.2071,0.2222,0.2396,0.2464,0.2675,0.2863,0.2972,0.3144,0.3069,0.3153,0.3149,0.2904,0.2875,0.294,0.2922,0.3084,0.3082,0.3079,0.3078,0.3076,0,0.1411,0.1457,0.1586,0.1639,0.1699,0.181,0.1895,0.2054,0.2165,0.2443,0.254,0.2775,0.2915,0.3107,0.3093,0.3152,0.321,0.292,0.2762,0.2959,0.2948,0.2933,0.2918,0.2598,0.2593,0.2589,0.2585,0,0.1401,0.1444,0.1512,0.1619,0.1703,0.1794,0.1933,0.2009,0.2221,0.2367,0.2597,0.2732,0.2927,0.2903,0.2947,0.2931,0.2882,0.2827,0.3172,0.2602,0.2506,0.2492,0.2494,0.2547,0.2551,0.2554,0.2556,0.2557,0.1381,0.1414,0.1502,0.1595,0.1688,0.1774,0.1822,0.1977,0.2124,0.2296,0.248,0.2567,0.2653,0.26,0.2597,0.2562,0.2709,0.2544,0.2556,0.2574,0.2462,0.2364,0.2358,0.236,0.2363,0.2365,0.2366,0,0.1347,0.1399,0.1481,0.1577,0.164,0.1721,0.1849,0.1879,0.2005,0.2135,0.2255,0.207,0.2114,0.2241,0.2135,0.2108,0.2077,0.2027,0.1986,0.2026,0.2061,0.192,0.1675,0.1672,0.167,0.1668,0,0,0.1334,0.1376,0.1416,0.1497,0.1576,0.1625,0.1671,0.173,0.1809,0.1774,0.1763,0.1902,0.2093,0.1801,0.1822,0.1751,0.186,0.168,0.2239,0.2228,0.226,0.2368,0.2198,0,0,0,0,0]},{"header":{"parameterUnit":"m.s-1","parameterCategory":2,"la1":30.2991,"la2":30.254,"lo1":-89.0895,"lo2":-89.0444,"dx":0.0017,"dy":0.0017,"nx":28,"ny":28,"refTime":"2023-01-30T15:00:00:Z","depth":"2","parameterNumber":3,"parameterNumberName":"V-component_of_CURRENTS"},"data":[0,0,0,0,0,0,0,0,0,0,0,0,0,0,0,0,0,0,0,0,0,0,0,0,0,0,0,0,0,0,0,0,0,0,0,0,0,0,0,0,0,0,0,0,0,0,0,0,0,0,0,0,0,0,0,0,0,0,-0.0598,-0.0598,0,-0.0579,-0.0579,-0.0579,-0.0558,-0.0557,-0.0557,-0.0557,-0.0557,-0.0558,-0.0558,0,0,0,0,0,0,0,0,0,0,0,0,0,-0.0589,-0.0589,-0.0598,-0.0598,-0.0598,-0.0579,-0.0579,-0.0578,-0.0558,-0.0557,-0.0557,-0.0557,-0.0557,-0.0557,-0.0558,0,0,0,0,0,0,0,0,0,0,0,0,0,-0.0583,-0.059,-0.0598,-0.0586,-0.0585,-0.0579,-0.0579,-0.0578,-0.0558,-0.0557,-0.0557,-0.0557,-0.0557,-0.0557,-0.0558,-0.0566,0,0,-0.0559,-0.0559,0,0,0,0,0,0,0,0,-0.0583,-0.0583,-0.0588,-0.0587,-0.0586,-0.0571,-0.0576,-0.0576,-0.0558,-0.0567,-0.0557,-0.0557,-0.0565,-0.0564,-0.056,-0.0566,-0.0566,-0.0559,-0.0559,-0.0559,-0.0559,0,0,0,0,0,0,0,-0.0584,-0.0584,-0.059,-0.0588,-0.0586,-0.0572,-0.0571,-0.0575,-0.0567,-0.0566,-0.0565,-0.0564,-0.0564,-0.0559,-0.056,-0.0566,-0.0559,-0.0559,-0.0559,-0.0559,-0.0598,-0.0599,0,0,0,0,0,0,-0.059,-0.0584,-0.059,-0.0589,-0.0585,-0.0573,-0.0571,-0.0575,-0.0567,-0.0565,-0.0565,-0.0564,-0.0559,-0.0559,-0.056,-0.057,-0.0559,-0.0559,-0.0559,-0.0597,-0.0598,-0.0599,0,0,0,0,0,0,-0.059,-0.0591,-0.0591,-0.0587,-0.0586,-0.0574,-0.0578,-0.0575,-0.0572,-0.0566,-0.0564,-0.0565,-0.0559,-0.0559,-0.0571,-0.057,-0.0559,-0.056,-0.0596,-0.0598,-0.0599,-0.059,0,0,0,0,0,0,-0.059,-0.0591,-0.0598,-0.0587,-0.0586,-0.0588,-0.0578,-0.0575,-0.0573,-0.0571,-0.0565,-0.0565,-0.0559,-0.057,-0.0571,-0.057,-0.056,-0.0595,-0.0597,-0.0598,-0.059,-0.0591,-0.0593,0,0,0,0,0,-0.059,-0.0591,-0.0598,-0.0599,-0.0595,-0.0588,-0.0586,-0.0575,-0.0573,-0.0571,-0.0574,-0.0565,-0.0581,-0.0571,-0.0572,-0.0571,-0.0594,-0.0596,-0.0598,-0.0589,-0.0591,-0.0593,0,0,0,0,0,0,-0.0573,-0.0589,-0.0596,-0.0598,-0.0598,-0.0585,-0.0582,-0.0579,-0.0579,-0.058,-0.0575,-0.0575,-0.0586,-0.0586,-0.0576,-0.059,-0.0587,-0.0589,-0.058,-0.0581,-0.0583,-0.0554,-0.056,0,0,0,0,0,-0.0579,-0.0591,-0.0597,-0.0596,-0.0601,-0.0596,-0.0593,-0.0588,-0.0586,-0.0585,-0.0583,-0.0588,-0.0594,-0.0594,-0.0601,-0.0607,-0.0606,-0.061,-0.0611,-0.0612,-0.0591,-0.0603,-0.0603,-0.0605,-0.0605,-0.0605,0,0,-0.0569,-0.058,-0.0585,-0.0596,-0.0595,-0.059,-0.0593,-0.0589,-0.058,-0.0587,-0.058,-0.0595,-0.06,-0.0606,-0.0611,-0.0604,-0.0616,-0.0615,-0.0615,-0.0593,-0.0605,-0.0604,-0.0604,-0.0607,-0.0607,-0.0606,0,0,-0.0548,-0.0571,-0.0574,-0.058,-0.0588,-0.0586,-0.0589,-0.0587,-0.0586,-0.0591,-0.0595,-0.0608,-0.0616,-0.0614,-0.0616,-0.0632,-0.0628,-0.0642,-0.0617,-0.0629,-0.0628,-0.0628,-0.064,-0.064,-0.0637,-0.0637,-0.0637,0,-0.053,-0.0538,-0.0569,-0.057,-0.0565,-0.0585,-0.0572,-0.0578,-0.0578,-0.0571,-0.0589,-0.0599,-0.0615,-0.0606,-0.0615,-0.0632,-0.0639,-0.0606,-0.0629,-0.0628,-0.0627,-0.064,-0.064,-0.0637,-0.0637,-0.0637,-0.0637,0,-0.0513,-0.0518,-0.0517,-0.0531,-0.0533,-0.0525,-0.054,-0.0543,-0.0553,-0.0552,-0.0558,-0.0585,-0.058,-0.0603,-0.0613,-0.0614,-0.0622,-0.0633,-0.0617,-0.0626,-0.064,-0.064,-0.0637,-0.0637,-0.0637,-0.0637,0,0,-0.0462,-0.0497,-0.0494,-0.0487,-0.0511,-0.0498,-0.0503,-0.0495,-0.047,-0.0507,-0.0475,-0.0522,-0.0533,-0.0537,-0.056,-0.0578,-0.0599,-0.0601,-0.0601,-0.06,-0.0625,-0.0645,-0.0647,-0.0615,-0.0614,-0.0614,-0.0642,0,-0.0428,-0.0418,-0.0448,-0.042,-0.0411,-0.0437,-0.0426,-0.0428,-0.0434,-0.0414,-0.0457,-0.0439,-0.0509,-0.0497,-0.0536,-0.0567,-0.0597,-0.059,-0.0627,-0.0628,-0.0634,-0.0647,-0.0615,-0.0638,-0.0642,-0.0642,-0.0642,0,-0.0394,-0.0391,-0.0366,-0.0355,-0.0351,-0.034,-0.0313,-0.0306,-0.0305,-0.0307,-0.032,-0.0338,-0.0363,-0.0422,-0.0499,-0.049,-0.0557,-0.0601,-0.0603,-0.0616,-0.0647,-0.0629,-0.0638,-0.0643,-0.0643,-0.0643,-0.0643,0,-0.0328,-0.0324,-0.0297,-0.0296,-0.0295,-0.028,-0.0274,-0.0269,-0.023,-0.0225,-0.0178,-0.0242,-0.023,-0.0335,-0.0435,-0.0462,-0.0516,-0.0564,-0.065,-0.0652,-0.0626,-0.0627,-0.0625,-0.0625,-0.0625,-0.0625,-0.0625,0,-0.0273,-0.0247,-0.0263,-0.0245,-0.0188,-0.0219,-0.0152,-0.0153,-0.0122,-0.0036,-0.0108,-0.0042,-0.0204,-0.025,-0.0387,-0.0508,-0.0484,-0.0637,-0.0657,-0.0627,-0.0626,-0.0629,-0.0629,-0.0626,-0.0625,-0.0625,-0.0625,0,-0.02,-0.0218,-0.0176,-0.0168,-0.0156,-0.0114,-0.0063,-0.0004,0.0007,0.0121,0.0142,0.012,0.006,-0.0106,-0.0254,-0.0414,-0.0544,-0.0597,-0.0552,-0.0567,-0.0691,-0.069,-0.0706,-0.0707,-0.0707,-0.0708,-0.0709,0,-0.0163,-0.0139,-0.0103,-0.0059,-0.0051,0.0,0.0055,0.0064,0.0145,0.0245,0.0329,0.0303,0.0317,0.0071,-0.0208,-0.0456,-0.0501,-0.0607,-0.0668,-0.068,-0.0698,-0.0696,-0.0695,-0.0638,-0.0637,-0.0637,-0.0637,0,-0.0078,-0.0069,-0.0031,0.0056,0.0117,0.0199,0.0277,0.0358,0.0413,0.051,0.0649,0.0667,0.044,0.0197,-0.0175,-0.0352,-0.0575,-0.0615,-0.0614,-0.0626,-0.0619,-0.0636,-0.0636,-0.0636,-0.0637,-0.0637,-0.0637,-0.0637,-0.0004,0.0048,0.0103,0.0195,0.0277,0.0408,0.0506,0.0611,0.0755,0.0916,0.0873,0.0886,0.0569,0.0104,-0.0186,-0.0521,-0.0546,-0.0684,-0.0683,-0.0682,-0.0673,-0.0668,-0.0693,-0.0694,-0.0694,-0.0694,-0.0694,0,0.0099,0.0156,0.0246,0.0371,0.0501,0.0506,0.0678,0.0802,0.1008,0.1074,0.1153,0.0844,0.0548,0.0206,-0.0288,-0.0596,-0.0615,-0.068,-0.0643,-0.0643,-0.0644,-0.0632,-0.0641,-0.0641,-0.0642,-0.0642,0,0,0.0161,0.027,0.0319,0.0554,0.0649,0.0838,0.0948,0.1128,0.1218,0.1282,0.123,0.1103,0.0653,0.0305,-0.01,-0.0355,-0.0419,-0.0402,-0.0421,-0.0328,-0.0324,-0.0632,-0.0613,0,0,0,0,0]}],[{"header":{"parameterUnit":"m.s-1","parameterCategory":2,"la1":30.2991,"la2":30.254,"lo1":-89.0895,"lo2":-89.0444,"dx":0.0017,"dy":0.0017,"nx":28,"ny":28,"refTime":"2023-01-30T15:00:00:Z","depth":"4","parameterNumber":2,"parameterNumberName":"U-component_of_CURRENTS"},"data":[0,0,0,0,0,0,0,0,0,0,0,0,0,0,0,0,0,0,0,0,0,0,0,0,0,0,0,0,0,0,0,0,0,0,0,0,0,0,0,0,0,0,0,0,0,0,0,0,0,0,0,0,0,0,0,0,0,0,0.0575,0.0576,0,0.0665,0.0667,0.0669,0.0807,0.0809,0.081,0.0812,0.0895,0.0895,0.0896,0,0,0,0,0,0,0,0,0,0,0,0,0,0.0519,0.052,0.0575,0.0576,0.0576,0.0665,0.0667,0.0669,0.0807,0.0809,0.0811,0.0813,0.0894,0.0895,0.0896,0,0,0,0,0,0,0,0,0,0,0,0,0,0.0579,0.0521,0.0575,0.0648,0.0655,0.0664,0.0667,0.067,0.0807,0.0809,0.0811,0.0813,0.0894,0.0895,0.0896,0.0856,0,0,0.09,0.09,0,0,0,0,0,0,0,0,0.0575,0.0582,0.0637,0.0643,0.065,0.0719,0.0677,0.0728,0.0806,0.0759,0.0812,0.0815,0.0827,0.0833,0.086,0.086,0.0863,0.09,0.09,0.0901,0.0901,0,0,0,0,0,0,0,0.0571,0.0579,0.0621,0.0637,0.0645,0.0673,0.0686,0.0688,0.0786,0.0764,0.0771,0.0765,0.0832,0.0858,0.0862,0.0865,0.09,0.0901,0.0901,0.0902,0.109,0.1094,0,0,0,0,0,0,0.0538,0.0575,0.0618,0.0623,0.0607,0.0672,0.0686,0.0702,0.0787,0.0799,0.0763,0.0771,0.0855,0.0861,0.0865,0.0969,0.0901,0.0902,0.0902,0.1086,0.1091,0.1096,0,0,0,0,0,0,0.0536,0.0541,0.0614,0.0592,0.0602,0.0669,0.0687,0.0703,0.0776,0.0784,0.0799,0.0824,0.0857,0.0864,0.0915,0.0967,0.0902,0.0903,0.1081,0.1087,0.1093,0.108,0,0,0,0,0,0,0.0535,0.0541,0.0561,0.059,0.0601,0.0655,0.0684,0.0702,0.076,0.0774,0.084,0.0848,0.086,0.0914,0.0916,0.0967,0.0904,0.1075,0.1084,0.1091,0.1075,0.1086,0.1094,0,0,0,0,0,0.0533,0.0537,0.0562,0.0567,0.062,0.0655,0.0667,0.0727,0.0761,0.0803,0.0849,0.0848,0.097,0.0916,0.0918,0.0971,0.1071,0.1081,0.1091,0.1071,0.1084,0.1094,0,0,0,0,0,0,0.0531,0.0551,0.0579,0.0595,0.0638,0.0676,0.0707,0.0745,0.0816,0.0833,0.0861,0.0872,0.0945,0.097,0.091,0.1065,0.1037,0.1048,0.1022,0.1034,0.1043,0.103,0.0905,0,0,0,0,0,0.0531,0.0548,0.0577,0.06,0.0618,0.0672,0.0699,0.0738,0.0784,0.0822,0.0871,0.0934,0.098,0.1014,0.1055,0.1108,0.1105,0.1167,0.1177,0.1184,0.1185,0.1212,0.1221,0.1128,0.1128,0.1128,0,0,0.0532,0.0548,0.0558,0.0601,0.0641,0.0678,0.0701,0.0745,0.0794,0.081,0.0911,0.095,0.1001,0.1074,0.1114,0.1104,0.1214,0.1196,0.1201,0.1198,0.1223,0.1231,0.1238,0.1134,0.1133,0.1132,0,0,0.0536,0.0566,0.0584,0.0622,0.0668,0.0697,0.0717,0.0782,0.0838,0.0923,0.0947,0.1007,0.1117,0.1137,0.1166,0.1253,0.1253,0.1314,0.1349,0.1375,0.138,0.1385,0.1385,0.139,0.1329,0.1329,0.1329,0,0.0546,0.057,0.0598,0.0633,0.066,0.0711,0.0746,0.0801,0.0884,0.0919,0.0975,0.1115,0.1144,0.119,0.1247,0.1264,0.1286,0.128,0.1378,0.1383,0.1388,0.1387,0.1392,0.133,0.133,0.133,0.133,0,0.0563,0.0597,0.0612,0.0675,0.0713,0.0746,0.0805,0.0873,0.0956,0.1006,0.1106,0.1158,0.1248,0.1281,0.1297,0.136,0.1363,0.1364,0.1321,0.1395,0.1391,0.1397,0.1331,0.133,0.133,0.133,0,0,0.0545,0.061,0.0619,0.0659,0.0733,0.0765,0.0843,0.0912,0.0976,0.1083,0.1172,0.1254,0.1295,0.1332,0.1351,0.1383,0.143,0.1413,0.1414,0.1365,0.149,0.144,0.144,0.1456,0.1458,0.1459,0.1466,0,0.0559,0.0606,0.0641,0.0712,0.0744,0.0814,0.0873,0.0945,0.1052,0.1156,0.1205,0.1308,0.131,0.1379,0.1402,0.1435,0.145,0.1427,0.147,0.147,0.1376,0.1447,0.1464,0.147,0.1472,0.1472,0.1473,0,0.0563,0.0594,0.0644,0.0722,0.0744,0.0804,0.0917,0.0987,0.1107,0.1199,0.1295,0.1359,0.1421,0.1438,0.1482,0.1482,0.1494,0.1502,0.1503,0.1462,0.1431,0.1394,0.1483,0.1482,0.1481,0.1481,0.148,0,0.0522,0.0599,0.0634,0.0665,0.0757,0.0815,0.0888,0.1004,0.1086,0.125,0.1347,0.1411,0.1493,0.1515,0.156,0.1546,0.1608,0.1577,0.1516,0.1511,0.155,0.1545,0.1595,0.1595,0.1595,0.1595,0.1595,0,0.051,0.0543,0.0628,0.0656,0.0713,0.0804,0.0918,0.1002,0.1155,0.1245,0.137,0.1449,0.1533,0.1585,0.1586,0.158,0.1625,0.1528,0.1519,0.1549,0.1544,0.1552,0.1547,0.1595,0.1595,0.1595,0.1595,0,0.0462,0.051,0.0557,0.0658,0.0698,0.0755,0.0939,0.1015,0.1174,0.1313,0.1377,0.1512,0.1583,0.1628,0.1673,0.1616,0.1613,0.1591,0.1624,0.1615,0.148,0.1475,0.1506,0.1505,0.1503,0.1502,0.1501,0,0.0441,0.0453,0.0549,0.058,0.0639,0.0758,0.0822,0.1004,0.1104,0.1324,0.136,0.1507,0.1579,0.158,0.1632,0.1627,0.1603,0.158,0.1519,0.1487,0.1476,0.1473,0.147,0.1499,0.1499,0.1499,0.1498,0,0.0386,0.0418,0.0455,0.052,0.0594,0.0685,0.0819,0.0885,0.1086,0.1239,0.1346,0.1419,0.1492,0.1527,0.1564,0.1543,0.1588,0.1565,0.1566,0.1509,0.1479,0.1468,0.1467,0.1494,0.1495,0.1495,0.1495,0,0.0339,0.0343,0.0391,0.0451,0.0526,0.0589,0.068,0.0808,0.0927,0.1177,0.1198,0.1343,0.1468,0.1484,0.1502,0.1513,0.147,0.1399,0.1407,0.1413,0.1385,0.1334,0.1304,0,0,0,0,0,0.0297,0.0293,0.0325,0.0387,0.0463,0.052,0.0652,0.0751,0.0944,0.0987,0.1113,0.1186,0.1275,0.1336,0.1325,0.1433,0.145,0.1412,0.1365,0.1469,0.1475,0.1454,0,0,0,0,0,0,0.0259,0.0276,0.0291,0.0326,0.0368,0.0451,0.0526,0.065,0.0704,0.0898,0.0944,0.111,0.1193,0.1271,0.1301,0.1323,0.1267,0.1514,0.1511,0.1467,0.1471,0.1475,0.1456,0,0,0,0,0]},{"header":{"parameterUnit":"m.s-1","parameterCategory":2,"la1":30.2991,"la2":30.254,"lo1":-89.0895,"lo2":-89.0444,"dx":0.0017,"dy":0.0017,"nx":28,"ny":28,"refTime":"2023-01-30T15:00:00:Z","depth":"4","parameterNumber":3,"parameterNumberName":"V-component_of_CURRENTS"},"data":[0,0,0,0,0,0,0,0,0,0,0,0,0,0,0,0,0,0,0,0,0,0,0,0,0,0,0,0,0,0,0,0,0,0,0,0,0,0,0,0,0,0,0,0,0,0,0,0,0,0,0,0,0,0,0,0,0,0,0.0097,0.0097,0,0.0061,0.006,0.006,-0.0012,-0.0014,-0.0015,-0.0016,-0.0071,-0.0072,-0.0072,0,0,0,0,0,0,0,0,0,0,0,0,0,0.0117,0.0116,0.0097,0.0097,0.0096,0.0061,0.006,0.0059,-0.0012,-0.0014,-0.0015,-0.0016,-0.0071,-0.0072,-0.0072,0,0,0,0,0,0,0,0,0,0,0,0,0,0.0095,0.0116,0.0097,0.0058,0.0055,0.0061,0.006,0.0059,-0.0012,-0.0014,-0.0015,-0.0017,-0.0071,-0.0072,-0.0072,-0.004,0,0,-0.0074,-0.0074,0,0,0,0,0,0,0,0,0.0096,0.0094,0.0064,0.0061,0.0057,0.0029,0.0047,0.0026,-0.0011,0.0011,-0.0016,-0.0018,-0.0036,-0.004,-0.0046,-0.0043,-0.0045,-0.0074,-0.0074,-0.0074,-0.0075,0,0,0,0,0,0,0,0.0098,0.0095,0.008,0.0064,0.006,0.0048,0.0042,0.0043,-0.0005,0.0009,0.0004,0.0005,-0.0039,-0.0046,-0.0048,-0.0046,-0.0074,-0.0074,-0.0075,-0.0075,-0.016,-0.0162,0,0,0,0,0,0,0.0109,0.0097,0.0081,0.0079,0.0076,0.0049,0.0043,0.0038,-0.0005,-0.0012,0.0006,0.0002,-0.0044,-0.0047,-0.005,-0.007,-0.0074,-0.0075,-0.0075,-0.0158,-0.0161,-0.0163,0,0,0,0,0,0,0.0109,0.0108,0.0082,0.0089,0.0085,0.0051,0.0046,0.0038,0.0015,-0.0006,-0.0014,-0.001,-0.0045,-0.005,-0.0062,-0.0071,-0.0075,-0.0076,-0.0156,-0.0159,-0.0162,-0.0074,0,0,0,0,0,0,0.011,0.0108,0.0107,0.009,0.0086,0.0086,0.0047,0.0039,0.0021,0.0014,-0.0022,-0.0028,-0.0047,-0.0061,-0.0063,-0.0072,-0.0076,-0.0154,-0.0157,-0.0161,-0.0074,-0.0074,-0.0073,0,0,0,0,0,0.0111,0.0129,0.0107,0.0105,0.0085,0.0087,0.0083,0.0051,0.0022,0.0021,-0.001,-0.0028,-0.0088,-0.0061,-0.0063,-0.0072,-0.0152,-0.0156,-0.0161,-0.0075,-0.0074,-0.0073,0,0,0,0,0,0,0.0146,0.0123,0.0098,0.0109,0.0094,0.0075,0.0077,0.0051,0.0026,0.0016,-0.0019,-0.0026,-0.0048,-0.008,-0.0051,-0.012,-0.0136,-0.0141,-0.0071,-0.007,-0.0069,-0.006,-0.0077,0,0,0,0,0,0.0152,0.0152,0.0129,0.0138,0.013,0.0099,0.0093,0.0073,0.0053,0.0038,0.001,-0.0034,-0.0064,-0.0081,-0.0106,-0.0119,-0.0159,-0.0145,-0.0144,-0.0142,-0.0144,-0.0219,-0.0224,-0.0177,-0.0177,-0.0177,0,0,0.0173,0.0158,0.0161,0.0144,0.0128,0.0134,0.009,0.009,0.009,0.004,0.0029,-0.0014,-0.0067,-0.0089,-0.0105,-0.0116,-0.0175,-0.0148,-0.0145,-0.0148,-0.0224,-0.0228,-0.0232,-0.018,-0.0179,-0.0179,0,0,0.0222,0.0195,0.0209,0.02,0.0181,0.0163,0.0161,0.0135,0.0113,0.0104,0.0053,0.0005,-0.0031,-0.0077,-0.0104,-0.0118,-0.0161,-0.0147,-0.0131,-0.0203,-0.0206,-0.021,-0.0239,-0.0246,-0.0153,-0.0153,-0.0153,0,0.0241,0.025,0.0217,0.0228,0.0224,0.0177,0.0191,0.0177,0.0148,0.0125,0.0106,0.0006,-0.0028,-0.0079,-0.0092,-0.0111,-0.0151,-0.0114,-0.0196,-0.0201,-0.0206,-0.0237,-0.0245,-0.0149,-0.015,-0.015,-0.015,0,0.0292,0.03,0.0312,0.0299,0.0294,0.0302,0.0274,0.0257,0.0217,0.0184,0.0124,0.0067,-0.0006,-0.0032,-0.0057,-0.0125,-0.0138,-0.0172,-0.0182,-0.0204,-0.0236,-0.0246,-0.0144,-0.0145,-0.0146,-0.0147,0,0,0.0321,0.0341,0.0343,0.0345,0.0327,0.0327,0.0326,0.0295,0.0272,0.0224,0.0177,0.0111,0.0049,0.001,-0.0047,-0.0112,-0.0165,-0.0155,-0.0161,-0.0154,-0.0301,-0.0276,-0.0285,-0.0214,-0.0216,-0.0218,-0.0297,0,0.0358,0.04,0.0396,0.0426,0.0433,0.0396,0.0393,0.036,0.0312,0.0259,0.0172,0.0113,0.0075,0.0028,-0.0039,-0.0144,-0.0195,-0.0139,-0.0309,-0.0313,-0.0264,-0.0298,-0.0225,-0.0305,-0.0307,-0.0309,-0.031,0,0.0388,0.0411,0.0456,0.0462,0.046,0.0476,0.0432,0.0428,0.035,0.0303,0.0223,0.0147,0.0049,0.0013,-0.0151,-0.0117,-0.0199,-0.0272,-0.0278,-0.0296,-0.031,-0.0292,-0.033,-0.0328,-0.0327,-0.0326,-0.0324,0,0.0394,0.0439,0.0474,0.0481,0.0491,0.0497,0.0492,0.0437,0.0418,0.0327,0.0283,0.0158,0.0086,-0.0043,-0.0183,-0.018,-0.0361,-0.038,-0.0426,-0.0423,-0.0455,-0.0451,-0.0493,-0.0493,-0.0493,-0.0492,-0.0492,0,0.041,0.0435,0.0488,0.0505,0.053,0.0526,0.0529,0.0496,0.0445,0.0413,0.0309,0.0245,0.0061,-0.0062,-0.0183,-0.033,-0.0362,-0.0426,-0.0453,-0.0415,-0.0406,-0.046,-0.0455,-0.0495,-0.0495,-0.0494,-0.0494,0,0.0401,0.0439,0.048,0.0522,0.0538,0.0554,0.0572,0.0563,0.0516,0.047,0.044,0.0294,0.0133,-0.0031,-0.0246,-0.0321,-0.0471,-0.051,-0.0429,-0.045,-0.0477,-0.0468,-0.0571,-0.0571,-0.0571,-0.0571,-0.0572,0,0.0396,0.0424,0.0497,0.0528,0.0556,0.0591,0.0606,0.0592,0.0584,0.05,0.047,0.0316,0.0206,-0.006,-0.0237,-0.0454,-0.0482,-0.0538,-0.0532,-0.0475,-0.0492,-0.0482,-0.0472,-0.0572,-0.0572,-0.0572,-0.0572,0,0.0383,0.0418,0.0456,0.0531,0.0575,0.0616,0.0646,0.064,0.0613,0.0585,0.0483,0.0336,0.016,-0.0052,-0.0219,-0.0377,-0.0497,-0.0539,-0.054,-0.0535,-0.0476,-0.0491,-0.0481,-0.0572,-0.0572,-0.0572,-0.0572,0,0.0366,0.0391,0.0455,0.0514,0.0576,0.0614,0.0634,0.0631,0.062,0.0547,0.0517,0.0328,0.0222,-0.0013,-0.0171,-0.0321,-0.0358,-0.0391,-0.0401,-0.0403,-0.0332,-0.0231,-0.0281,0,0,0,0,0,0.0345,0.0373,0.0431,0.0495,0.0562,0.0601,0.0642,0.0655,0.0644,0.0585,0.0555,0.0396,0.015,0.0031,-0.0116,-0.0186,-0.0394,-0.0361,-0.0439,-0.0572,-0.0572,-0.0517,0,0,0,0,0,0,0.0328,0.0377,0.0415,0.0472,0.0516,0.0581,0.061,0.0609,0.0579,0.0554,0.0421,0.0378,0.0129,0.0232,-0.0115,-0.0162,-0.0226,-0.0473,-0.0475,-0.0573,-0.0572,-0.0572,-0.0516,0,0,0,0,0]}]]